Regional Weather Roundup
Issued by NWS Charleston, WV

Home | Current Version | Previous Version | Graphics & Text | Print | Product List | Glossary On
Versions: 1 2 3 4 5 6 7 8 9 10 11 12 13 14 15 16 17 18 19 20 21 22 23 24 25 26 27 28 29 30 31 32 33 34 35 36 37 38 39 40 41 42 43 44 45 46 47 48 49 50
000
ASUS41 KRLX 271210
RWRRLX
West Virginia Regional Weather Roundup
National Weather Service Charleston WV
800 AM EDT WED MAY 27 2015

Note: "fair" indicates few or no clouds below 12,000 feet with no
significant weather and/or obstructions to visibility.

WVZ003-271300-
Northern Panhandle of West Virginia

CITY           SKY/WX    TMP DP  RH WIND       PRES   REMARKS
WHEELING       PTSUNNY   66  64  94 SW12      30.13R
$$

WVZ009-271300-
Northwest West Virginia

CITY           SKY/WX    TMP DP  RH WIND       PRES   REMARKS
PARKERSBURG    PTSUNNY   68  65  90 SW7       30.17R
$$

WVZ006-271300-
Western West Virginia

CITY           SKY/WX    TMP DP  RH WIND       PRES   REMARKS
HUNTINGTON     MOSUNNY   68  65  90 SW8       30.15R
$$

WVZ015-271300-
West Central West Virginia

CITY           SKY/WX    TMP DP  RH WIND       PRES   REMARKS
CHARLESTON     MOSUNNY   70  66  87 S6        30.17R
$$

WVZ022-031-271300-
North Central West Virginia

CITY           SKY/WX    TMP DP  RH WIND       PRES   REMARKS
CLARKSBURG     RAIN      66  65  96 S5        30.17R FOG
MORGANTOWN     LGT RAIN  67  63  87 SW6       30.17R
$$

WVZ025-035-042-045-271300-
Southern West Virginia

CITY           SKY/WX    TMP DP  RH WIND       PRES   REMARKS
BECKLEY        CLOUDY    66  61  84 SW7       30.26R
LOGAN          PTSUNNY   68  64  88 CALM      30.18S
BLUEFIELD      CLOUDY    67  58  72 W15       30.29R
LEWISBURG      CLOUDY    66  64  91 CALM      30.25R
$$

WVZ047-271300-
Northern Mountains of West Virginia

CITY           SKY/WX    TMP DP  RH WIND       PRES   REMARKS
ELKINS         LGT RAIN  66  62  87 N3        30.21R
$$

WVZ052-271300-
Eastern Panhandle of West Virginia

CITY           SKY/WX    TMP DP  RH WIND       PRES   REMARKS
MARTINSBURG    PTSUNNY   72  67  84 S6        30.16R
PETERSBURG     MOSUNNY   69  63  83 CALM      30.16F
$$



USA.gov is the U.S. government's official web portal to all federal, state and local government web resources and services.